Location: Maiden
(35.5760°N, 81.2120°W)
Time: 11:03:34
(UTC-04:00)

S-56A Canister/Altair - Visible Passes

Search period start: 04 August 2020 00:00
Search period end: 14 August 2020 00:00
Orbit: 633 x 2499 km, 38.9° (Epoch: 03 August)

Date Brightness Start Highest point End Pass type
(mag) Time Alt. Az. Time Alt. Az. Time Alt. Az.
07 Aug 10.2 05:48:10 10° SSE 05:51:37 15° SE 05:55:44 10° E visible
08 Aug 10.5 05:18:09 10° SE 05:19:07 10° SE 05:20:09 10° ESE visible
10 Aug 9.3 06:10:50 10° SSW 06:16:11 37° SE 06:23:49 10° ENE visible
11 Aug 9.4 05:38:49 10° SSW 05:43:37 30° SE 05:50:10 10° E visible
12 Aug 9.4 05:07:44 14° S 05:11:07 24° SE 05:16:31 10° E visible
13 Aug 9.4 04:36:55 16° SSE 04:38:39 18° SE 04:42:49 10° E visible
